Orbital Elements at Epoch 2459000.5 (2020-May-31.0) TDB
Reference: JPL 18 (heliocentric ecliptic J2000)
Element | Value | Uncertainty (1-sigma) | Units |
e | .1240768759354176 | 3.936e-08 | |
a | 2.224426956901256 | 9.6855e-09 | au |
q | 1.948427009342421 | 8.7067e-08 | au |
i | 6.229678935622555 | 5.869e-06 | deg |
node | 32.51084139879735 | 4.0713e-05 | deg |
peri | 263.4153664543753 | 4.8146e-05 | deg |
M | 154.1344489816244 | 2.8252e-05 | deg |
tp | 2458481.672646848432 (2018-Dec-29.17264685) | 9.3919e-05 | TDB |
period | 1211.785219778037 3.32 | 7.9144e-06 2.167e-08 | d yr |
n | .2970823493506062 | 1.9403e-09 | deg/d |
Q | 2.500426904460092 | 1.0887e-08 | au |
|
| | Orbit Determination Parameters
Additional Information
|